Regional Weather Roundup
Issued by NWS

Home | Current Version | Previous Version | Text Only | Print | Product List | Glossary Off
Versions: 1 2 3 4 5 6 7 8 9 10 11 12 13 14 15 16 17 18 19 20 21 22 23 24 25 26 27 28 29 30 31 32 33 34 35 36 37 38 39 40 41 42 43 44 45 46 47 48 49 50

000
ASUS43 KIND 110509
RWRIN

WEATHER ROUNDUP FOR INDIANA
NATIONAL WEATHER SERVICE INDIANAPOLIS IN
1200 AM EST SUN DEC 11 2016

NOTE: "FAIR" INDICATES FEW OR NO CLOUDS BELOW 12,000 FEET WITH NO
SIGNIFICANT WEATHER AND/OR OBSTRUCTIONS TO VISIBILITY.

* - STATION DOES NOT REPORT WEATHER SUCH AS PRECIPITATION OR FOG.

+ - STATION NOT QUALITY CONTROLLED BY THE NATIONAL WEATHER SERVICE.
    USE DATA WITH CAUTION...ESPECIALLY DEWPOINT AND RELATIVE
    HUMIDITY OBSERVATIONS.

INZ001>003-010>013-019-020-110600-
NORTHWEST INDIANA

CITY           SKY/WX    TMP DP  RH WIND       PRES   REMARKS
GARY /AIRPORT/ LGT SNOW  26  23  90 S7        30.33S WCI  18
KNOX *+        CLOUDY    23  12  63 S7        30.34F WCI  15
LA PORTE +     LGT SNOW  23  21  92 S6        30.33F WCI  15
MICHIGAN CITY+ LGT SNOW  23  23 100 SE3       30.33F
MONTICELLO +   LGT SNOW  24  20  84 SE5       30.34F WCI  18
RENSSELAER +   LGT SNOW  27  25  93 SE9       30.33F WCI  17
VALPARAISO     LGT SNOW  24  20  84 MISG      30.32F FOG

$$

LMZ046-743>745-110600-
SOUTHERN LAKE MICHIGAN

STATION/POSITION TIME  TEMP    WIND        PRES    WAVE
                       AIR SEA DIR/SP/G            HT
                 (UTC) (F)     (DEG/KT/KT) (MB)    (FT)
BURNS HARBOR     0440   24     170/ 10/ 13 1027.4F

$$

INZ004-005-014>016-021>024-110600-
NORTH CENTRAL INDIANA

CITY           SKY/WX    TMP DP  RH WIND       PRES   REMARKS
GOSHEN         LGT SNOW  23  19  85 SE8       30.35F FOG     WCI  14
LOGANSPORT +   LGT SNOW  25  23  93 SE8       30.36F WCI  16
PERU/GRISSOM   LGT SNOW  24  23  97 SE7       30.34F FOG     WCI  16
ROCHESTER +    LGT SNOW  27  27 100 SE8       30.35F WCI  18
SOUTH BEND     LGT SNOW  22  21  96 S8        30.35F FOG     WCI  12
WARSAW +       LGT SNOW  23  19  86 SE3       30.35F

$$

INZ006>009-017-018-025>027-110600-
NORTHEAST INDIANA

CITY           SKY/WX    TMP DP  RH WIND       PRES   REMARKS
ANGOLA *+      CLOUDY    21  21 100 S5        30.35S WCI  15
AUBURN +       LGT SNOW  25  21  86 CALM      30.37F
FORT WAYNE     LGT SNOW  24  21  88 S6        30.38F VSB 3/4 WCI  17
HUNTINGTON +   LGT SNOW  23  22  96 S5        30.37F WCI  17
KENDALLVILLE + LGT SNOW  23  21  91 SE5       30.35F WCI  17

$$

INZ028-029-035-036-043>045-051>053-110600-
WEST CENTRAL INDIANA

CITY           SKY/WX    TMP DP  RH WIND       PRES   REMARKS
CRAWFORDSVL +  LGT SNOW  25  22  89 SE10      30.34F WCI  15
GREENCASTLE +  CLOUDY    28  21  74 S3        30.36S
LAFAYETTE      LGT SNOW  25  23  92 SE7       30.35S FOG     WCI  17
TERRE HAUTE    CLOUDY    29  19  66 E6        30.35S WCI  23

$$

INZ030>032-037>040-046>048-054>057-064-065-110600-
CENTRAL INDIANA

CITY           SKY/WX    TMP DP  RH WIND       PRES   REMARKS
CP ATTERBURY + CLOUDY    30  19  64 CALM      30.38R
FISHERS *+     CLOUDY    27  23  86 CALM      30.38
FRANKFORT +    LGT SNOW  28  25  87 SE8       30.36F WCI  20
GREENWOOD *+   CLOUDY    28  19  69 CALM      30.38R
INDIANAPOLIS   CLOUDY    28  17  63 SE7       30.36R WCI  21
-EAGLE CREEK   CLOUDY    29  17  61 SE3       30.36R
KOKOMO +       LGT SNOW  24  23  96 S8        30.37S FOG     WCI  15
MARION +       LGT SNOW  24  22  94 SE6       30.38S WCI  17
MT COMFORT *+  CLOUDY    27  19  74 SE3       30.37S
SHELBYVILLE    CLOUDY    29  19  66 CALM      30.37R
ZIONSVILLE +   LGT SNOW  26  20  80 SE5       30.37R WCI  20

$$

INZ033-034-041-042-049-050-058-059-110600-
EAST CENTRAL INDIANA

CITY           SKY/WX    TMP DP  RH WIND       PRES   REMARKS
MUNCIE         CLOUDY    26  22  84 SE3       30.37S

$$

INZ060-061-067>069-081>083-085>088-110600-
SOUTHWEST INDIANA

CITY           SKY/WX    TMP DP  RH WIND       PRES   REMARKS
EVANSVILLE     CLOUDY    33  18  53 S6        30.34F WCI  28
HUNTINGBURG *+ CLOUDY    32  19  59 S7        30.35R WCI  26
WASHINGTON +   CLOUDY    31  22  68 SE6       30.34S WCI  25

$$

INZ062-063-066-070>080-084-089>092-110600-
SOUTH CENTRAL AND SOUTHEAST INDIANA

CITY           SKY/WX    TMP DP  RH WIND       PRES   REMARKS
BLOOMINGTON    CLOUDY    29  16  58 SE6       30.34R WCI  23
MADISON *+     CLOUDY    32  18  55 SE8       30.36F WCI  25
NORTH VERNON + CLOUDY    30  23  74 SE6       30.35F WCI  24
SEYMOUR +      CLOUDY    32  18  55 SE3       30.36S

$$




USA.gov is the U.S. government's official web portal to all federal, state and local government web resources and services.